User: anonymous   Login
Location: Cronhütte
(48.9135°N, 9.6869°E)
Time: 21:04:42
(UTC+00:00)
Language:

Cosmos 1300 - Orbit

View from above orbital plane
View from above orbital plane
View from above satellite
View from above satellite

Ground track
Ground track

The orbit data is extracted from the following two-line orbital elements,

1 12785U 81082A   24206.47399454  .00017384  00000-0  52291-3 0  9996
2 12785  82.4967  15.9712 0001041 129.6702 230.4633 15.34257831345652
Epoch (UTC): 24 July 2024 11:22:33
Eccentricity: 0.0001041
inclination: 82.4967°
perigee height: 462 km
apogee height: 464 km
right ascension of ascending node: 15.9712°
argument of perigee: 129.6702°
revolutions per day: 15.34257831
mean anomaly at epoch: 230.4633°
orbit number at epoch: 34565

The dashed part of the orbit path shows where the satellite is in the earth's shadow,  

DLR